Hlavní strana
METAR-TAF:

METAR-TAF

Letiště :

Jasper, Georgie, Spojené státy americké

zeměpisná šířka: 34-27-12N, zeměpisná délka: 084-27-26W, výška: 468 m

Aktuální stav počasí

Zpráva byla vytvořena před 35 minutami, v 18:35 UTC
Severoseverozápadní vítr 7 kt
Teplota 9°C
Vlhkost vzduchu 87%
Tlak 1020 hPa
Viditelnost: 16.1 km
Zataženo ve výšce 1300 ft
slabé mrholení

METAR: KJZP 151835Z AUTO 34007KT 10SM -DZ OVC013 09/07 A3013 RMK AO2 T00880067

Čas: 14:10 (19:10 UTC)


TAF: chybějící

Stav a předpovědi počasí z více než 4 000 letišť (zprávy METAR a TAF).

Červené a žluté tečky na mapě představují dostupné meteorologické stanice.

Když kurzor umístíte na tečku, zobrazí se název stanice.

Pak kliknutím zobrazíte stav a předpověď počasí.

Chcete-li změnit mapu, kliknutím na zelené tlačítko se znaménkem +mapu přiblížíte, kliknutím na zelené tlačítko se znaménkem – mapu oddálíte a kliknutím na zelené šipky přejdete na sousední mapy.


METAR-TAF: